Location: Madrid
(40.4000°N, 3.6830°W)
Time: 09:47:05
(UTC+02:00)

ISS - Pass Details

Date: 18 July 2020
Orbit: 418 x 420 km, 51.6° (Epoch: 04 August)

Event Time Altitude Azimuth Distance (km) Brightness Sun altitude
Rises 01:43:51 0° 305° (NW) 2,372 0.7 -28.0°
Reaches altitude 10° 01:46:59 10° 336° (NNW) 1,508 0.0 -28.1°
Maximum altitude 01:48:30 12° 3° (N) 1,367 -0.3 -28.2°
Drops below altitude 10° 01:50:01 10° 30° (NNE) 1,507 -0.3 -28.2°
Enters shadow 01:55:33 -7° 73° (ENE) 3,225 0.9 -28.3°
